Weather observations for the past three days for
Taylorville, Taylorville Municipal Airport
Imperial (Metric)
Date Time (cdt) Wind (mph) Vis. (mi.) Weather Sky Cond. Temperature (ºF) Relative Humidity Wind Chill (°F) Heat Index (°F) Pressure Precipitation (in)
Air Dwpt 6 hour altimeter (in) sea level (mb) 1 hr 3 hr 6 hr
Max. Min.
02 18:39 NW 8 10.00 Partly Cloudy SCT080 57.2 28.4 33% 30.08 0.0
02 18:20 W 8 10.00 Fair CLR 57.2 28.4 33% 30.08 0.0
02 18:00 NW 7 10.00 Partly Cloudy SCT085 57.2 30.2 36% 30.08 0.0
02 17:42 NW 6 10.00 Partly Cloudy SCT085 57.2 30.2 36% 30.08 0.0
02 17:21 NW 8 10.00 Partly Cloudy SCT075 SCT085 57.2 30.2 36% 30.08 0.0
02 17:00 N 9 10.00 Mostly Cloudy SCT075 BKN090 55.4 30.2 38% 30.08 0.0
02 16:40 N 3 10.00 Mostly Cloudy SCT075 BKN090 57.2 30.2 36% 30.08 0.0
02 16:19 NW 7 10.00 Overcast OVC090 55.4 30.2 38% 30.09 0.0
02 15:59 W 7 10.00 Mostly Cloudy BKN090 55.4 28.4 36% 30.09 0.0
02 15:41 N 3 10.00 Mostly Cloudy SCT075 BKN090 57.2 32 39% 30.1 0.0
02 15:19 N 7 G 10 10.00 Overcast BKN065 OVC090 55.4 32 41% 30.1 0.0
02 15:00 N 5 10.00 Mostly Cloudy SCT065 BKN090 55.4 30.2 38% 30.1 0.0
02 14:40 NW 7 10.00 Overcast BKN080 OVC090 55.4 30.2 38% 30.11 0.0
02 14:19 NE 8 10.00 Mostly Cloudy SCT080 BKN090 55.4 32 41% 30.11 0.0
02 14:00 NE 3 10.00 Partly Cloudy SCT060 SCT090 53.6 32 44% 30.11 0.0
02 13:42 NE 7 G 16 10.00 Mostly Cloudy SCT060 BKN080 53.6 33.8 47% 30.12 0.0
02 13:20 NE 7 10.00 Overcast SCT060 SCT070 OVC080 53.6 33.8 47% 30.12 0.0
02 13:00 N 9 10.00 Overcast SCT050 OVC080 53.6 35.6 51% 30.12 0.0
02 12:20 NE 8 10.00 Mostly Cloudy SCT048 SCT060 BKN080 53.6 33.8 47% 30.13 0.0
02 12:01 N 7 10.00 Partly Cloudy SCT048 SCT060 SCT080 53.6 35.6 51% 30.13 0.0
02 11:41 NE 9 10.00 Partly Cloudy SCT043 SCT050 53.6 37.4 54% 30.14 0.0
02 11:20 N 5 10.00 Fair CLR 53.6 35.6 51% 30.14 0.0
02 10:59 N 6 10.00 Fair CLR 53.6 35.6 51% 30.14 0.0
02 10:39 NE 7 10.00 Fair CLR 53.6 37.4 54% 30.14 0.0
02 10:20 E 8 10.00 Partly Cloudy SCT090 51.8 35.6 54% 30.14 0.0
02 10:00 E 9 10.00 Mostly Cloudy BKN090 51.8 35.6 54% 30.13 0.0
02 09:41 NE 7 10.00 Overcast OVC090 50 35.6 58% 48 30.13 0.0
02 09:20 E 7 10.00 Overcast OVC090 50 37.4 62% 48 30.13 0.0
02 09:01 E 9 10.00 Overcast OVC080 48.2 35.6 62% 45 30.13 0.0
02 08:40 E 10 10.00 Mostly Cloudy SCT080 BKN090 48.2 35.6 62% 44 30.12 0.0
02 08:19 E 13 10.00 Mostly Cloudy SCT080 BKN100 46.4 35.6 66% 41 30.11 0.0
02 07:59 E 8 G 16 10.00 Overcast OVC100 44.6 35.6 71% 41 30.11 0.0
02 07:39 E 10 10.00 Overcast OVC100 42.8 35.6 76% 38 30.11 0.0
02 07:19 NE 8 10.00 Overcast OVC100 42.8 37.4 81% 39 30.11 0.0
02 07:00 NE 10 10.00 Overcast OVC100 42.8 37.4 81% 38 30.1 0.0
02 06:40 NE 9 10.00 Overcast OVC100 42.8 37.4 81% 38 30.09 0.0
02 06:21 NE 7 10.00 Overcast OVC100 42.8 39.2 87% 39 30.08 0.0
02 06:00 E 8 10.00 Overcast OVC100 42.8 37.4 81% 39 30.08 0.0
02 05:40 NE 6 10.00 Mostly Cloudy BKN100 44.6 39.2 81% 42 30.08 0.0
02 05:19 NE 3 10.00 Partly Cloudy SCT100 42.8 39.2 87% 30.07 0.0
02 04:59 NE 3 10.00 Overcast SCT050 SCT065 OVC110 44.6 39.2 81% 30.08 0.0
02 04:43 Calm 10.00 Mostly Cloudy SCT050 BKN065 BKN110 44.6 41 87% 30.08 0.0
02 04:19 NE 5 10.00 Overcast OVC050 46.4 41 82% 45 30.08 0.0
02 04:00 Calm 10.00 Overcast BKN050 OVC110 46.4 41 82% 30.07 0.0
02 03:43 Calm 10.00 Overcast OVC110 46.4 41 82% 30.06 0.0
02 03:19 E 3 10.00 Overcast SCT050 SCT075 OVC110 46.4 41 82% 30.06 0.0
02 02:59 Calm 10.00 Overcast BKN060 OVC075 48.2 42.8 82% 30.06 0.0
02 02:42 Calm 10.00 Overcast OVC060 46.4 41 82% 30.06 0.0
02 01:59 E 3 10.00 Overcast OVC060 46.4 42.8 87% 30.06 0.0
02 01:40 E 3 10.00 Overcast BKN060 OVC080 46.4 42.8 87% 30.07 0.0
02 01:19 E 5 10.00 Overcast SCT060 OVC080 46.4 42.8 87% 45 30.07 0.0
02 01:01 Calm 10.00 Overcast OVC080 46.4 41 82% 30.07 0.0
02 00:22 Calm 10.00 Overcast BKN090 OVC110 46.4 41 82% 30.06 0.0
02 00:00 E 5 10.00 Overcast SCT090 OVC110 48.2 39.2 71% 47 30.07 0.0
01 23:39 E 6 10.00 Mostly Cloudy BKN110 46.4 39.2 76% 44 30.06 0.0
01 23:21 E 5 10.00 Fair CLR 48.2 37.4 66% 47 30.07 0.0
01 22:59 E 6 10.00 Partly Cloudy SCT100 48.2 37.4 66% 46 30.06 0.0
01 22:39 NE 5 10.00 Mostly Cloudy SCT075 BKN100 48.2 39.2 71% 47 30.07 0.0
01 22:20 NE 6 10.00 Overcast SCT075 OVC100 50 37.4 62% 48 30.07 0.0
01 21:59 NE 7 10.00 Mostly Cloudy SCT075 SCT080 BKN100 51.8 39.2 62% 30.07 0.0
01 21:40 NE 5 10.00 Overcast SCT065 BKN080 OVC090 51.8 37.4 58% 30.06 0.0
01 21:19 NE 5 10.00 Overcast BKN090 OVC120 51.8 37.4 58% 30.05 0.0
01 20:59 N 6 10.00 Mostly Cloudy SCT080 SCT100 BKN120 50 39.2 67% 48 30.05 0.0
01 20:40 N 8 10.00 Overcast BKN080 OVC090 51.8 37.4 58% 30.04 0.0
01 20:19 N 6 10.00 Overcast SCT060 BKN080 OVC090 51.8 37.4 58% 30.03 0.0
01 19:59 NW 5 10.00 Overcast SCT065 OVC080 51.8 41 67% 30.03 0.0
01 19:42 N 6 10.00 Overcast BKN065 OVC090 51.8 39.2 62% 30.02 0.0
01 19:20 N 7 10.00 Mostly Cloudy BKN090 BKN110 53.6 37.4 54% 30.02 0.0
01 19:00 N 9 10.00 Mostly Cloudy SCT070 BKN090 BKN110 53.6 35.6 51% 30.01 0.0
01 18:40 N 13 G 17 10.00 Overcast BKN070 OVC080 55.4 33.8 44% 30 0.0
01 18:19 NW 7 10.00 Overcast BKN075 OVC085 57.2 33.8 41% 30 0.0
01 17:59 N 3 10.00 Overcast SCT075 OVC085 57.2 33.8 41% 30.01 0.0
01 17:39 Calm 10.00 Mostly Cloudy SCT060 SCT075 BKN085 57.2 30.2 36% 30.01 0.0
01 17:20 NW 3 10.00 Mostly Cloudy SCT060 SCT095 BKN120 57.2 32 39% 30.01 0.0
01 17:00 N 3 10.00 Partly Cloudy SCT110 57.2 32 39% 30.01 0.0
01 16:39 NW 5 10.00 Mostly Cloudy BKN110 57.2 32 39% 30.02 0.0
01 16:20 W 7 10.00 Mostly Cloudy BKN110 57.2 33.8 41% 30.03 0.0
01 16:01 W 6 10.00 Partly Cloudy SCT095 57.2 33.8 41% 30.04 0.0
01 15:39 W 6 10.00 Overcast BKN085 OVC095 55.4 33.8 44% 30.05 0.0
01 15:21 NW 8 10.00 Overcast SCT075 OVC095 57.2 33.8 41% 30.05 0.0
01 14:59 N 6 10.00 Mostly Cloudy SCT060 SCT095 BKN110 55.4 33.8 44% 30.05 0.0
01 14:39 NW 8 10.00 Mostly Cloudy SCT060 BKN095 57.2 33.8 41% 30.06 0.0
01 14:19 N 7 10.00 Mostly Cloudy SCT065 SCT085 BKN095 57.2 35.6 44% 30.06 0.0
01 13:59 NW 9 10.00 Mostly Cloudy SCT065 BKN075 55.4 33.8 44% 30.06 0.0
01 13:39 N 12 G 16 10.00 Mostly Cloudy SCT055 BKN070 BKN080 55.4 35.6 47% 30.06 0.0
01 13:20 N 7 10.00 Mostly Cloudy BKN055 57.2 35.6 44% 30.06 0.0
01 13:01 NW 7 G 17 10.00 Mostly Cloudy BKN065 55.4 35.6 47% 30.06 0.0
01 12:39 W 9 G 17 10.00 Partly Cloudy SCT050 55.4 35.6 47% 30.06 0.0
01 12:22 NW 14 G 18 10.00 Partly Cloudy SCT049 55.4 35.6 47% 30.06 0.0
01 12:01 N 14 10.00 Partly Cloudy SCT049 SCT055 53.6 33.8 47% 30.07 0.0
01 11:41 NW 8 10.00 Partly Cloudy SCT047 53.6 37.4 54% 30.07 0.0
01 11:21 NW 8 10.00 Fair CLR 53.6 37.4 54% 30.08 0.0
01 11:00 NW 7 G 10 10.00 Partly Cloudy SCT037 51.8 37.4 58% 30.08 0.0
01 10:39 N 9 10.00 Fair CLR 51.8 37.4 58% 30.07 0.0
01 10:20 N 9 G 18 10.00 Fair CLR 51.8 37.4 58% 30.07 0.0
01 09:59 N 13 10.00 Fair CLR 51.8 37.4 58% 30.06 0.0
01 09:39 N 13 G 17 10.00 Fair CLR 50 39.2 67% 46 30.06 0.0
01 09:19 N 9 10.00 Fair CLR 50 39.2 67% 47 30.05 0.0
01 08:59 N 13 10.00 Fair CLR 48.2 39.2 71% 43 30.05 0.0
01 08:41 NW 12 10.00 Fair CLR 48.2 39.2 71% 44 30.05 0.0
01 08:19 N 12 10.00 Fair CLR 46.4 37.4 71% 42 30.05 0.0
01 07:59 NW 10 10.00 Fair CLR 46.4 37.4 71% 42 30.05 0.0
01 07:42 NW 12 G 17 10.00 Fair CLR 44.6 35.6 71% 39 30.05 0.0
01 07:19 NW 12 10.00 Fair CLR 44.6 35.6 71% 39 30.04 0.0
01 06:59 NW 10 10.00 Fair CLR 44.6 33.8 66% 40 30.03 0.0
01 06:42 NW 9 10.00 Fair CLR 44.6 33.8 66% 40 30.02 0.0
01 06:19 W 10 10.00 Fair CLR 42.8 33.8 71% 38 30.01 0.0
01 05:59 W 10 10.00 Fair CLR 42.8 33.8 71% 38 30.01 0.0
01 05:39 W 9 10.00 Fair CLR 44.6 35.6 71% 40 30 0.0
01 05:19 W 9 10.00 Fair CLR 44.6 35.6 71% 40 30 0.0
01 04:59 W 10 10.00 Fair CLR 44.6 35.6 71% 40 30 0.0
01 04:39 W 9 10.00 Fair CLR 44.6 35.6 71% 40 30 0.0
01 04:21 NW 12 G 17 10.00 Fair CLR 46.4 35.6 66% 42 30 0.0
01 03:59 NW 12 10.00 Fair CLR 46.4 37.4 71% 42 30 0.0
01 03:40 NW 13 10.00 Fair CLR 46.4 39.2 76% 41 30 0.0
01 03:20 NW 13 G 18 10.00 Partly Cloudy SCT100 48.2 41 76% 43 29.99 0.0
01 02:59 W 9 10.00 Partly Cloudy SCT100 48.2 42.8 82% 45 29.99 0.0
01 02:39 W 9 10.00 Mostly Cloudy SCT060 BKN090 48.2 44.6 87% 45 29.99 0.0
01 02:19 W 7 10.00 Overcast SCT060 OVC090 50 44.6 82% 48 29.99 0.0
01 02:00 NW 9 10.00 Overcast OVC080 50 44.6 82% 47 29.99 0.0
01 01:39 NW 7 10.00 Overcast OVC070 50 44.6 82% 48 29.99 0.0
01 01:20 NW 8 10.00 Overcast OVC070 51.8 44.6 77% 29.99 0.0
01 00:59 NW 9 10.00 Overcast OVC060 51.8 46.4 82% 29.99 0.0
01 00:39 NW 12 10.00 Overcast SCT014 SCT019 OVC060 51.8 46.4 82% 29.99 0.0
01 00:19 NW 10 10.00 Overcast OVC016 51.8 48.2 88% 29.99 0.0
30 23:59 W 8 10.00 Overcast BKN018 OVC039 51.8 48.2 88% 29.99 0.0
30 23:40 W 9 10.00 Overcast BKN039 BKN048 OVC060 51.8 48.2 88% 29.98 0.0
30 23:22 W 9 10.00 Overcast BKN060 OVC080 51.8 48.2 88% 29.98 0.0
30 23:00 W 3 10.00 Overcast SCT055 BKN080 OVC095 51.8 48.2 88% 29.97 0.0
30 22:39 W 3 10.00 Overcast SCT048 BKN055 OVC075 51.8 48.2 88% 29.98 0.0
30 22:19 W 3 10.00 Overcast BKN055 BKN065 OVC085 53.6 48.2 82% 29.98 0.0
30 21:59 SW 3 10.00 Overcast SCT065 OVC085 53.6 46.4 77% 29.98 0.0
30 21:40 NW 5 10.00 Overcast BKN070 OVC085 53.6 46.4 77% 29.99 0.0
30 21:19 NW 7 10.00 Overcast BKN070 OVC085 53.6 46.4 77% 29.99 0.0
30 20:59 NW 9 G 16 10.00 Overcast SCT055 OVC070 55.4 44.6 67% 29.98 0.0
30 20:39 NW 10 10.00 Overcast OVC070 55.4 44.6 67% 29.97 0.0
30 20:19 S 5 10.00 Overcast OVC070 55.4 44.6 67% 29.95 0.0
30 19:59 Calm 10.00 Overcast OVC070 57.2 42.8 59% 29.96 0.0
30 19:39 SW 6 10.00 Overcast OVC070 57.2 41 55% 29.96 0.0
30 19:19 SW 6 10.00 Overcast OVC075 59 39.2 48% 29.95 0.0
30 18:39 SW 7 10.00 Overcast SCT075 OVC090 60.8 37.4 42% 29.95 0.0
30 18:19 SW 10 10.00 Overcast SCT080 OVC100 60.8 35.6 39% 29.95 0.0
30 17:59 SW 9 10.00 Mostly Cloudy SCT080 BKN100 60.8 35.6 39% 29.96 0.0
30 17:41 SW 9 10.00 Fair CLR 60.8 35.6 39% 29.96 0.0
30 17:22 W 12 10.00 Fair CLR 62.6 35.6 37% 29.96 0.0
30 17:01 SW 12 G 16 10.00 Partly Cloudy SCT080 64.4 35.6 34% 29.96 0.0
30 15:59 W 9 10.00 Overcast OVC080 60.8 35.6 39% 29.99 0.0
30 13:59 NW 8 10.00 Partly Cloudy SCT070 SCT095 62.6 35.6 37% 30.03 0.0
30 13:39 W 9 10.00 Partly Cloudy SCT070 62.6 33.8 34% 30.04 0.0
30 13:19 W 3 10.00 Partly Cloudy SCT120 60.8 33.8 36% 30.05 0.0
30 13:03 W 7 10.00 Mostly Cloudy SCT065 BKN120 60.8 33.8 36% 30.05 0.0
30 12:39 S 8 10.00 Partly Cloudy SCT065 60.8 33.8 36% 30.06 0.0
30 12:19 NW 5 10.00 Fair CLR 60.8 33.8 36% 30.07 0.0
30 11:59 W 7 10.00 Fair CLR 60.8 33.8 36% 30.07 0.0
30 11:39 W 8 10.00 Fair CLR 59 33.8 39% 30.07 0.0
30 11:22 W 8 10.00 Fair CLR 59 33.8 39% 30.07 0.0
30 10:59 W 6 10.00 Fair CLR 57.2 33.8 41% 30.08 0.0
30 10:41 S 5 10.00 Fair CLR 57.2 35.6 44% 30.08 0.0
30 10:21 S 3 10.00 Fair CLR 57.2 33.8 41% 30.07 0.0
30 10:00 SW 6 10.00 Fair CLR 55.4 33.8 44% 30.08 0.0
30 09:40 S 3 10.00 Fair CLR 55.4 37.4 51% 30.08 0.0
30 09:19 SW 3 10.00 Fair CLR 53.6 37.4 54% 30.08 0.0
30 08:39 SW 6 10.00 Fair CLR 51.8 37.4 58% 30.09 0.0
30 08:20 SW 3 10.00 Fair CLR 50 39.2 67% 30.09 0.0
30 07:59 SW 3 10.00 Fair CLR 46.4 39.2 76% 30.09 0.0
30 07:39 Calm 10.00 Fair CLR 46.4 41 82% 30.09 0.0
30 07:19 S 3 10.00 Fair CLR 42.8 41 93% 30.08 0.0
30 06:59 Calm 10.00 Fair CLR 41 41 100% 30.07 0.0
30 06:42 Calm 10.00 Fair CLR 39.2 39.2 100% 30.07 0.0
30 06:19 Calm 10.00 Fair CLR 39.2 39.2 100% 30.07 0.0
30 05:59 Calm 10.00 Fair CLR 39.2 39.2 100% 30.07 0.0
30 05:39 Calm 7.00 Fair CLR 39.2 37.4 93% 30.07 0.0
30 05:19 Calm 10.00 Fair CLR 39.2 39.2 100% 30.06 0.0
30 04:59 Calm 10.00 Fair CLR 39.2 37.4 93% 30.06 0.0
30 04:39 Calm 10.00 Fair CLR 39.2 37.4 93% 30.06 0.0
30 04:22 Calm 10.00 Fair CLR 39.2 37.4 93% 30.06 0.0
30 04:01 Calm 10.00 Fair CLR 41 37.4 87% 30.07 0.0
30 03:41 Calm 10.00 Fair CLR 41 37.4 87% 30.06 0.0
30 03:19 Calm 10.00 Fair CLR 41 39.2 93% 30.07 0.0
30 02:59 Calm 10.00 Fair CLR 41 39.2 93% 30.07 0.0
30 02:39 Calm 10.00 Fair CLR 41 39.2 93% 30.07 0.0
30 02:21 Calm 10.00 Fair CLR 42.8 39.2 87% 30.07 0.0
30 01:39 Calm 10.00 Fair CLR 44.6 37.4 76% 30.07 0.0
30 01:19 Calm 10.00 Fair CLR 44.6 37.4 76% 30.07 0.0
30 00:59 Calm 10.00 Fair CLR 44.6 37.4 76% 30.07 0.0
30 00:41 N 5 10.00 Fair CLR 44.6 37.4 76% 43 30.07 0.0
30 00:19 NW 3 10.00 Fair CLR 46.4 37.4 71% 30.08 0.0
29 23:59 N 3 10.00 Fair CLR 46.4 37.4 71% 30.07 0.0
29 23:40 N 3 10.00 Fair CLR 46.4 37.4 71% 30.07 0.0
29 23:19 NW 5 10.00 Fair CLR 46.4 37.4 71% 45 30.07 0.0
29 22:59 W 6 10.00 Fair CLR 48.2 37.4 66% 46 30.06 0.0
29 22:39 W 7 10.00 Fair CLR 50 37.4 62% 48 30.06 0.0
29 22:19 W 7 10.00 Fair CLR 50 37.4 62% 48 30.06 0.0
29 22:04 NW 7 10.00 Fair CLR 51.8 37.4 58% 30.06 0.0
29 21:39 W 6 10.00 Fair CLR 51.8 37.4 58% 30.05 0.0
29 21:19 NW 6 10.00 Fair CLR 51.8 37.4 58% 30.05 0.0
29 20:59 NW 9 10.00 Fair CLR 51.8 35.6 54% 30.04 0.0
29 20:44 NW 8 10.00 Fair CLR 51.8 35.6 54% 30.03 0.0
29 20:19 NW 8 10.00 Fair CLR 53.6 35.6 51% 30.03 0.0
29 19:59 NW 8 10.00 Fair CLR 53.6 35.6 51% 30.02 0.0
29 19:40 NW 12 10.00 Fair CLR 55.4 35.6 47% 30.01 0.0
29 19:19 NW 14 G 18 10.00 Partly Cloudy SCT070 55.4 35.6 47% 30.01 0.0
29 18:59 NW 10 10.00 Partly Cloudy SCT070 55.4 37.4 51% 30.01 0.0
Date Time (cdt) Wind (mph) Vis. (mi.) Weather Sky Cond. Air Dwpt Max. Min. Relative Humidity Wind Chill (°F) Heat Index (°F) altimeter (in) sea level (mb) 1 hr 3 hr 6 hr
6 hour
Temperature (ºF) Pressure Precipitation (in)